This is the latest recevied weather packets stored in our database for station/object DH0GMA. If no packets are shown the sender has not sent any weather packets the latest 10 day(s).
| Time | Temp. | Humidity | Pressure | Rain* | Wind** | Luminosity | Snow |
|---|---|---|---|---|---|---|---|
| 1777477957 | 17.78° C | 38% | 1019.6 hPa | 0 mm | - | - | - |
| 1777477356 | 17.78° C | 38% | 1019.6 hPa | 0 mm | - | - | - |
| 1777476756 | 17.78° C | 39% | 1019.5 hPa | 0 mm | - | - | - |
| 1777476156 | 17.78° C | 39% | 1019.5 hPa | 0 mm | - | - | - |
| 1777475556 | 17.78° C | 39% | 1019.3 hPa | 0 mm | - | - | - |
| 1777474956 | 17.78° C | 39% | 1019.3 hPa | 0 mm | - | - | - |
| 1777474355 | 17.78° C | 40% | 1019.2 hPa | 0 mm | - | - | - |
| 1777473755 | 18.33° C | 41% | 1019.3 hPa | 0 mm | - | - | - |
| 1777473156 | 17.78° C | 42% | 1019.3 hPa | 0 mm | - | - | - |
| 1777472556 | 17.78° C | 40% | 1019.3 hPa | 0 mm | - | - | - |
| 1777471956 | 18.33° C | 44% | 1019.4 hPa | 0 mm | - | - | - |
| 1777471356 | 18.33° C | 41% | 1019.7 hPa | 0 mm | - | - | - |
| 1777470756 | 18.33° C | 41% | 1019.4 hPa | 0 mm | - | - | - |
| 1777470156 | 18.33° C | 42% | 1019.4 hPa | 0 mm | - | - | - |
| 1777469556 | 18.33° C | 38% | 1019.4 hPa | 0 mm | - | - | - |
| 1777468956 | 17.78° C | 42% | 1019.4 hPa | 0 mm | - | - | - |
| 1777468356 | 17.78° C | 39% | 1019.5 hPa | 0 mm | - | - | - |
| 1777467756 | 17.78° C | 38% | 1019.4 hPa | 0 mm | - | - | - |
| 1777467156 | 17.78° C | 40% | 1019.5 hPa | 0 mm | - | - | - |
| 1777466556 | 17.78° C | 40% | 1019.4 hPa | 0 mm | - | - | - |
| 1777465957 | 17.78° C | 40% | 1019.6 hPa | 0 mm | - | - | - |
| 1777465356 | 17.22° C | 41% | 1019.4 hPa | 0 mm | - | - | - |
| 1777464756 | 17.22° C | 40% | 1019.5 hPa | 0 mm | - | - | - |
| 1777464156 | 17.22° C | 42% | 1019.6 hPa | 0 mm | - | - | - |
| 1777463556 | 17.22° C | 41% | 1019.7 hPa | 0 mm | - | - | - |
* Rain latest hour (hover to see other rain measurements)
** Current wind speed in m/s (hover to see current wind gust speed)